Starlink 31903

operational
NORAD ID: 59845 Int'l Des: 2024-097 Owner: SPXS Country: US Constellation: starlink
LEOCIRCULAR

关于 Starlink 31903

正在加载描述...

实时位置

正在加载3D地球...

即将过境

高度历史

Altitude vs Time

uPlot chart will show altitude changes over time

两行轨道根数

1 59845U 24097L 25351.14584421 -.00001435 00000-0 -42609-4 0 9998
2 59845 43.0023 13.5231 0001531 279.2645 80.8034 15.27593845 89374
Epoch: Dec 17, 2025 • Age: 17 hours

当前状态

高度 482.5 km
速度 7.63 km/s
星下点 18.10°N, 10.1°W
发射日期 May 23, 2024
运行时间 1.5 years
类型 internet

技术详情

分类 Payload
质量 730.00 kg
干质量 700.00 kg
总质量 730.00 kg
长度 0.30 m
直径 4.10 m
跨度 29.00 m
形状 Box + pan
制造商 SPXS
平台类型 Starlink V2M
阶段状态 In Orbit
所有者/国家 SPXS/US

大型星座

Loading constellations...